Location: Finch Observatory
(42.1604°N, 72.0115°W)
Time: 19:35:10
(UTC-05:00)

ISS - Visible Passes

Search period start: 21 January 2018 00:00
Search period end: 31 January 2018 00:00
Orbit: 402 x 407 km, 51.6° (Epoch: 22 January)

Date Brightness Start Highest point End Pass type
(mag) Time Alt. Az. Time Alt. Az. Time Alt. Az.
23 Jan -1.5 18:30:12 10° S 18:31:10 14° SSE 18:31:10 14° SSE visible
24 Jan -1.3 19:13:02 10° SW 19:14:08 20° SW 19:14:08 20° SW visible
25 Jan -3.3 18:20:56 10° SSW 18:24:01 40° SE 18:24:19 39° ESE visible
26 Jan -2.2 17:29:15 10° S 17:31:49 21° SE 17:34:23 10° E visible
26 Jan -2.1 19:04:56 10° WSW 19:07:05 33° W 19:07:05 33° W visible
27 Jan -3.9 18:12:26 10° WSW 18:15:41 84° NW 18:17:05 32° NE visible
28 Jan -2.1 18:57:07 10° W 18:59:40 27° NNW 18:59:40 27° NNW visible
29 Jan -2.8 18:04:21 10° W 18:07:27 40° NNW 18:09:32 18° NE visible
30 Jan -1.7 18:49:28 10° WNW 18:51:55 19° NNW 18:51:59 19° NNW visible
